Theta_e
349 350 351 351 351 350 350 351 352 353 353 353 352 351 352 353 353 352 352 352 356 355 356 356 355 355 354 355 355 355 355 356 357 357 356 356 356 356 355 353 352 351 351 351 352 351 349 347 346 345 343 340 339 339 339 340 339 339 338 336 334 333 333 330 328 327 330 333 333 334 336 337 336 337 336 337 337 342 347 341 340 338 338 338 340
350 350 351 351 351 351 351 352 353 353 352 353 352 352 352 352 354 354 353 353 354 356 355 356 356 355 354 354 355 355 356 355 356 356 355 355 355 356 355 354 352 351 351 350 351 352 350 348 347 346 344 342 341 339 339 339 339 337 337 337 335 335 335 333 330 329 328 330 332 334 335 337 334 336 335 335 336 340 341 339 338 338 339 339 338
351 351 351 351 351 352 352 352 352 352 352 352 352 353 352 351 352 354 355 354 355 355 356 355 355 355 354 354 354 354 355 355 356 356 355 355 355 355 356 355 353 352 351 351 351 351 350 349 348 347 346 343 342 341 340 339 340 338 337 338 336 336 336 334 331 329 329 330 332 332 333 334 333 333 335 336 338 338 338 337 337 340 340 339 338
352 351 351 351 351 352 352 352 352 352 352 353 352 353 353 353 352 351 354 356 356 356 356 356 356 355 354 354 354 354 354 355 355 355 355 355 355 355 355 355 354 354 353 352 351 351 350 349 349 348 346 344 342 341 340 339 339 339 337 337 337 336 337 336 333 332 330 329 332 332 333 333 334 334 337 337 337 336 336 336 336 338 339 339 338
352 352 352 351 351 351 351 352 352 352 352 353 353 353 353 353 352 351 351 352 355 356 356 356 356 356 355 354 354 354 354 354 354 355 355 356 355 355 355 355 355 355 354 353 354 352 351 350 350 349 347 345 344 342 341 339 339 339 338 337 337 337 338 338 335 333 331 330 331 333 333 333 335 334 336 335 335 335 334 334 333 335 337 338 338
352 352 352 351 351 351 351 352 352 352 352 352 353 353 353 353 352 352 351 350 351 354 356 355 355 355 356 355 354 354 355 355 355 355 355 356 356 356 355 355 355 355 355 354 354 353 352 351 350 349 348 346 345 344 342 340 339 338 338 337 337 337 336 337 337 334 332 332 331 331 331 332 332 333 334 336 334 333 333 333 332 332 333 335 337
352 352 352 352 351 351 351 351 352 352 353 353 353 353 353 353 352 351 352 351 350 350 354 355 355 354 355 356 355 354 354 355 355 355 356 356 356 356 355 355 354 354 355 355 355 354 353 352 351 350 349 347 346 345 344 342 341 339 339 338 338 336 335 336 337 335 334 332 331 331 332 333 332 331 332 335 336 334 332 331 331 333 332 332 333
353 352 352 351 351 352 352 352 352 353 353 353 353 353 353 353 352 352 352 351 350 350 351 354 355 355 354 355 356 356 354 354 355 356 356 356 356 356 356 355 354 354 354 354 355 354 354 354 353 352 350 349 348 347 346 343 343 341 340 339 338 336 335 335 335 335 334 333 332 332 331 332 330 332 332 331 331 331 333 333 330 331 332 332 332
354 353 352 352 351 352 353 353 354 353 354 353 353 352 352 352 352 352 352 351 351 351 352 352 354 355 355 354 354 356 355 355 355 355 356 356 356 355 356 355 355 354 353 353 354 354 354 354 354 353 353 347 341 342 342 341 345 342 341 340 338 337 336 335 335 335 334 334 333 333 332 331 332 331 330 330 329 330 332 333 332 333 333 333 334
354 354 353 353 353 353 353 354 354 354 353 353 352 352 352 352 352 351 351 352 351 351 351 352 353 354 354 354 353 354 355 357 348 336 340 355 356 356 356 356 355 355 354 353 353 354 354 355 355 346 341 338 337 335 336 335 336 343 344 341 340 338 337 336 335 335 335 333 333 333 332 332 333 332 332 332 333 332 329 330 330 331 328 332 333
354 354 354 354 354 354 353 353 354 353 353 353 353 352 352 351 351 351 351 351 351 351 351 351 352 353 353 354 353 353 354 354 338 333 333 336 351 356 355 355 355 355 354 353 352 352 353 354 355 351 343 339 341 333 334 333 333 334 336 337 337 341 338 336 336 335 334 334 334 333 332 332 334 335 334 334 333 332 331 331 331 330 329 328 327
355 355 355 355 355 354 354 354 353 353 353 353 353 353 352 351 350 350 350 350 351 352 351 351 351 352 353 354 353 354 354 340 334 332 331 331 336 354 355 355 355 354 354 354 353 353 353 353 354 355 355 353 351 347 337 331 330 330 332 333 333 333 336 339 338 336 335 334 334 334 334 333 334 335 335 334 333 333 332 331 331 330 329 328 328
356 356 356 356 356 356 355 354 353 353 353 353 353 353 352 351 350 349 349 350 350 351 351 351 351 352 353 353 353 354 354 339 332 330 330 330 330 339 355 355 354 354 354 354 354 354 353 353 353 354 355 343 347 351 350 345 330 327 329 330 331 330 331 333 335 340 338 336 335 335 335 335 334 334 336 336 337 333 332 331 331 331 331 330 330
357 357 357 357 357 357 356 355 354 353 354 353 353 352 352 350 350 350 350 350 349 350 351 351 351 351 351 352 353 354 354 340 330 327 327 328 329 332 352 354 354 354 354 354 355 354 354 353 352 352 354 354 353 352 351 350 348 342 337 336 338 337 329 328 329 331 339 339 337 335 337 338 335 336 338 338 335 333 333 332 332 331 331 331 333
355 357 357 358 358 357 357 355 354 354 354 353 353 352 352 352 351 351 350 350 349 349 350 350 351 351 351 352 352 352 354 337 329 325 324 324 327 329 349 353 354 354 354 354 355 355 355 355 354 353 353 353 354 351 352 351 349 348 345 342 340 341 341 339 337 337 337 340 339 339 339 339 339 339 338 339 338 337 336 335 334 334 334 335 333
352 354 356 357 358 358 357 356 355 354 354 353 352 352 352 352 351 351 351 351 351 351 351 352 352 352 352 352 351 351 353 333 327 324 323 323 325 337 346 350 352 354 354 354 354 355 356 355 355 354 354 353 344 333 339 351 350 348 347 346 344 343 343 337 335 335 339 341 341 341 340 340 336 341 341 339 338 339 339 339 335 332 332 331 330
351 352 354 356 357 358 358 357 356 355 354 353 352 351 351 352 352 353 351 350 350 350 351 352 353 353 353 353 352 352 353 338 325 322 321 321 324 341 346 349 351 352 353 354 354 355 355 356 355 355 355 354 343 332 330 333 350 349 348 347 346 345 344 346 334 329 329 328 329 331 332 331 330 328 328 331 336 337 337 334 333 333 331 329 329
352 352 352 355 356 357 358 358 356 355 354 353 353 352 352 352 352 353 351 350 349 350 351 351 352 354 353 354 354 353 352 343 323 319 319 320 327 344 347 349 350 351 352 354 354 354 355 347 354 355 355 355 337 330 329 332 346 349 349 347 346 345 346 347 347 342 327 326 327 328 329 330 330 328 328 328 328 332 337 332 334 334 331 331 328
351 351 352 354 355 357 358 358 357 357 355 355 355 354 353 352 353 353 353 352 351 351 351 351 351 352 353 354 348 351 354 344 321 319 317 318 327 345 349 349 349 350 351 352 353 354 354 350 343 343 348 347 333 328 326 330 346 349 349 348 346 346 348 347 346 345 343 338 336 335 336 332 335 336 336 327 329 338 338 337 336 334 332 331 331
350 352 352 354 355 355 357 358 358 357 356 356 356 355 355 354 353 353 353 353 352 351 351 351 350 351 352 353 354 353 354 354 337 317 317 317 320 344 350 350 349 350 351 351 352 353 353 354 348 329 327 328 327 325 323 321 342 349 350 349 348 347 350 349 348 347 346 345 342 340 339 340 340 339 339 338 334 338 338 339 338 336 334 333 332
347 350 351 354 355 355 356 358 358 358 358 357 357 357 357 355 354 354 353 353 353 352 351 351 351 351 351 352 353 353 355 354 346 315 315 315 316 325 349 351 352 352 352 351 352 353 353 354 355 338 326 323 322 321 320 318 322 346 350 350 350 348 339 344 346 341 346 346 345 343 342 341 340 340 340 339 339 337 338 337 340 339 336 334 333
351 349 351 354 355 355 356 357 358 359 358 358 357 356 357 357 356 355 355 354 353 352 352 351 351 351 351 352 352 352 353 345 355 318 315 313 314 314 341 352 352 353 353 353 353 354 354 355 355 343 329 324 321 318 317 318 318 332 344 332 331 326 340 343 345 345 344 344 343 343 343 342 340 339 339 339 340 340 339 339 338 339 339 339 336
354 349 351 354 355 356 356 357 358 359 359 358 357 356 357 357 357 356 355 354 354 353 353 352 351 351 351 351 352 353 353 351 336 336 314 312 312 312 319 337 334 351 354 353 353 354 356 356 354 339 327 323 319 317 317 317 317 327 321 322 323 328 336 342 341 342 342 342 342 341 341 342 340 339 339 339 340 341 341 340 340 340 340 341 341
353 350 350 352 355 356 357 358 359 360 359 359 358 357 357 358 358 357 356 355 354 354 353 353 352 352 351 351 352 353 354 355 337 329 327 312 312 311 312 318 326 345 353 354 355 355 356 357 348 324 316 313 313 315 316 316 327 320 316 316 319 327 339 339 339 339 338 339 339 340 341 342 342 341 340 340 340 341 341 342 341 342 341 340 340
355 350 350 352 355 356 357 358 359 360 360 360 358 358 358 359 357 357 357 356 355 354 354 353 353 352 351 351 350 351 355 356 356 338 324 316 313 312 312 313 316 317 339 351 353 351 319 305 307 310 313 312 311 312 314 314 313 312 313 315 327 338 339 339 339 337 335 335 337 339 341 342 343 343 341 339 340 340 340 341 340 340 341 340 339
358 351 350 352 355 357 357 358 360 361 361 361 361 360 360 359 358 357 357 357 356 355 354 353 353 353 352 352 351 352 353 355 348 336 329 325 320 313 312 313 314 314 317 325 319 316 315 315 315 316 320 326 332 335 337 338 323 319 316 317 328 334 337 338 338 336 335 335 335 336 340 343 343 339 339 340 339 338 338 337 337 336 337 336 335
358 354 350 353 356 357 358 359 360 361 361 361 362 362 362 361 359 357 358 357 356 355 355 353 353 353 353 353 354 353 354 346 337 338 336 329 328 325 319 321 316 315 322 328 324 331 332 331 332 323 320 319 320 319 322 325 329 332 334 330 328 330 333 336 338 338 336 336 335 337 340 343 342 337 335 336 337 338 338 336 336 335 335 335 333
356 353 353 355 358 357 359 369 363 361 362 362 362 362 362 362 360 358 358 359 357 356 356 355 354 355 354 355 355 355 345 333 333 333 332 335 332 327 327 328 327 326 327 329 331 333 333 325 325 331 333 335 337 338 340 341 339 338 339 337 333 332 331 327 329 338 339 340 340 341 340 341 340 337 336 335 336 337 337 335 335 335 334 333 330
358 352 353 357 358 360 361 364 360 361 356 333 319 315 317 337 356 350 335 328 353 361 359 358 358 358 357 356 356 347 339 335 331 318 319 308 325 334 332 331 329 329 323 314 329 330 329 330 330 331 331 331 332 334 336 337 338 339 340 341 339 336 333 332 332 333 336 337 337 338 339 340 340 338 335 335 335 337 337 336 335 334 334 332 329
350 350 351 352 355 360 361 361 361 360 350 336 331 324 316 303 308 327 325 320 309 310 334 353 354 342 330 322 327 345 344 334 309 301 301 298 297 297 297 297 299 310 308 308 320 327 326 326 329 330 331 332 332 333 334 335 336 336 337 331 337 338 338 336 335 334 335 335 336 336 336 337 338 338 335 333 334 335 335 331 334 334 332 330 328
348 348 348 348 348 355 356 358 359 358 350 341 334 328 324 319 302 301 309 311 307 302 301 303 312 321 330 322 314 306 307 301 298 298 296 297 297 297 296 296 297 298 303 322 326 324 323 324 325 325 326 327 327 328 328 328 328 329 329 330 331 331 331 334 337 336 335 334 334 335 335 336 336 337 335 333 333 333 334 332 333 333 332 330 328
346 347 348 348 348 350 351 354 355 351 345 341 337 332 329 325 323 308 301 304 304 301 301 301 302 304 309 314 316 315 304 298 297 297 297 297 297 296 296 296 297 299 301 309 320 319 319 320 319 318 319 321 322 323 324 325 326 326 326 326 327 328 328 328 329 331 332 333 335 334 335 335 336 335 335 334 331 333 332 331 330 330 330 330 328
345 345 345 346 346 349 347 349 351 348 342 338 335 333 330 327 324 322 319 305 301 301 301 300 300 300 302 303 306 307 305 300 296 296 296 296 296 297 296 296 297 298 305 315 318 314 314 315 316 317 318 320 321 322 324 325 326 326 327 327 327 328 329 330 329 330 330 331 332 333 334 335 333 333 331 331 331 331 332 332 331 330 330 329 327
347 345 343 343 343 342 343 344 347 346 342 339 336 333 331 329 326 326 325 326 325 316 306 302 301 302 299 299 300 300 297 296 296 295 294 296 295 295 300 302 296 294 305 318 315 316 315 315 316 317 318 319 320 322 324 325 326 327 327 327 328 328 329 330 330 329 329 330 331 331 332 334 333 333 333 333 332 331 331 330 331 329 328 328 326
341 349 352 347 341 341 341 341 341 342 342 340 336 333 331 333 334 331 328 326 326 325 326 325 311 306 313 306 298 296 296 295 295 295 294 295 297 295 299 316 318 318 316 316 316 317 317 318 318 319 319 321 322 324 325 326 327 327 327 327 328 328 329 329 328 329 329 329 329 330 330 330 332 332 332 332 331 330 330 330 330 330 329 328 327
340 341 341 342 340 339 339 338 339 339 339 340 339 337 338 337 334 331 328 329 328 327 327 327 325 311 303 298 297 297 295 295 296 295 296 295 296 297 319 317 319 319 318 317 318 319 319 319 320 323 323 323 324 325 326 327 327 327 328 328 327 328 328 329 328 329 329 330 330 329 327 331 331 330 332 331 331 330 329 328 327 325 324 324 323
335 337 339 340 340 339 339 340 338 337 336 337 339 340 339 338 336 334 331 329 328 328 326 325 326 327 324 324 311 299 296 295 295 295 294 295 295 308 322 319 320 317 319 319 319 321 321 322 324 326 326 326 327 327 327 327 328 327 322 327 327 327 328 328 327 326 327 328 329 329 330 330 331 331 331 330 329 330 329 327 325 323 323 322 320
333 333 334 334 335 335 335 335 334 334 335 336 338 338 337 335 333 331 329 328 328 327 326 325 324 323 323 320 330 323 310 297 296 302 303 307 314 320 320 322 320 319 319 318 318 318 320 324 326 327 328 328 328 328 327 327 327 327 326 326 325 325 319 322 322 323 323 323 323 323 322 323 323 323 323 324 321 317 316 317 317 317 316 316 317
331 325 324 327 329 331 332 332 332 332 333 333 334 335 334 332 331 329 328 328 328 327 326 325 324 323 321 319 320 323 321 319 319 320 319 319 319 320 320 321 319 318 319 318 320 319 320 322 325 328 328 328 327 327 327 327 326 325 324 323 322 322 321 320 319 319 319 319 318 318 317 317 317 317 318 318 317 318 317 317 318 317 316 316 316
330 329 326 325 327 327 328 330 328 328 330 329 329 331 331 330 329 328 327 327 326 326 325 323 321 319 318 320 318 320 322 320 320 319 319 320 319 320 318 319 318 319 321 322 318 319 320 320 323 327 328 328 328 327 327 326 325 323 321 319 318 318 318 318 318 318 318 318 317 317 317 316 317 318 319 319 319 319 318 317 317 317 317 316 316
328 328 329 324 324 325 327 326 325 324 324 324 324 325 325 326 326 328 327 327 327 326 325 323 321 318 314 308 304 311 323 323 323 322 321 323 324 324 322 321 321 322 320 319 319 319 320 321 322 325 328 328 328 327 326 325 322 319 317 317 316 316 317 317 317 317 318 318 318 317 318 318 318 318 317 317 314 315 317 317 317 317 316 317 317
325 324 324 323 323 323 322 321 321 322 322 322 320 320 320 321 321 321 321 321 322 321 320 319 319 318 311 306 305 307 321 324 324 325 326 326 325 325 326 326 326 324 323 322 321 323 322 323 323 323 325 326 327 326 325 324 321 317 315 315 315 315 315 316 316 316 317 317 317 317 317 318 318 318 318 313 317 317 317 317 317 317 317 317 317
324 323 323 323 321 321 319 319 319 318 317 317 317 320 319 317 316 316 316 316 316 316 315 315 315 317 315 309 310 311 318 320 322 321 322 323 324 325 325 326 327 327 326 326 326 326 325 324 324 323 323 324 325 325 324 323 320 317 314 314 315 314 314 315 315 316 316 317 317 317 317 317 318 318 318 317 317 317 317 317 317 317 316 317 316
322 321 321 320 319 319 318 317 316 316 316 318 317 316 315 314 313 313 313 312 312 313 313 313 314 314 314 313 311 314 316 316 316 316 316 317 319 320 321 324 328 326 325 324 325 326 326 325 325 325 324 324 325 324 323 320 319 317 315 314 314 315 314 314 314 315 316 315 315 315 316 316 317 317 317 317 316 316 316 316 316 316 317 317 317
319 318 317 316 316 315 315 315 315 314 315 313 312 312 313 311 311 311 311 310 310 310 310 311 311 311 311 311 311 312 312 312 312 312 312 313 314 315 317 319 319 317 315 315 314 314 314 314 314 316 320 323 325 325 324 323 321 319 317 316 315 315 315 314 315 316 315 314 314 315 315 316 315 315 315 316 316 316 315 315 316 316 315 315 315
318 317 316 315 315 315 314 313 314 312 311 310 310 309 309 309 309 309 309 308 308 308 307 308 308 308 308 308 308 309 308 308 309 309 309 309 310 311 313 314 313 312 310 310 310 310 309 309 308 309 311 314 316 319 322 322 322 320 319 318 317 317 316 316 316 316 316 314 314 313 314 314 314 314 320 315 315 315 314 314 313 314 315 314 314
317 316 315 315 314 314 314 313 312 311 310 310 310 309 308 307 307 308 308 307 306 306 306 305 306 306 306 306 306 306 306 306 306 306 307 307 308 309 310 311 309 307 307 306 306 306 305 305 305 306 306 307 309 312 314 313 314 316 318 319 317 315 316 317 318 317 317 316 316 315 314 313 313 314 315 314 313 313 313 313 313 313 313 313 313
315 315 315 315 314 313 313 312 312 313 310 309 308 307 307 306 305 305 304 304 304 304 304 304 304 304 305 304 305 305 305 304 305 305 306 306 307 307 307 307 305 304 304 303 303 303 303 303 303 304 304 303 305 306 308 308 308 307 308 309 309 305 302 304 315 317 316 316 316 316 315 315 315 315 315 313 313 312 312 312 311 311 311 312 311
312 312 311 311 311 311 310 310 310 309 308 307 307 305 304 303 302 301 301 301 301 301 301 301 302 303 303 304 304 303 303 304 303 303 304 304 305 305 305 305 304 303 302 301 300 300 300 301 301 301 301 301 301 303 304 305 304 304 302 301 298 296 293 297 307 313 309 315 317 316 315 315 315 314 314 312 312 313 311 311 310 310 310 310 310
310 311 310 309 308 308 308 307 306 306 306 305 304 302 302 301 300 300 300 299 299 299 299 299 300 300 301 302 302 302 302 301 301 301 302 302 303 304 304 304 303 302 301 300 299 299 299 299 299 299 300 300 299 300 301 302 303 301 300 297 293 292 293 295 302 301 308 317 317 317 317 316 315 315 314 313 312 312 311 311 310 310 309 309 309
311 309 308 307 306 306 305 303 302 302 302 301 300 300 300 299 299 300 300 299 298 299 299 298 299 299 299 300 301 301 301 301 301 301 301 301 301 302 302 302 302 301 300 300 299 298 298 297 297 298 298 298 297 297 298 299 300 299 296 293 292 292 292 292 298 294 293 300 314 317 318 317 316 315 313 312 310 311 311 311 309 309 309 308 308
Wind_Speed
17 16 14 15 15 15 14 14 14 13 12 12 12 12 11 11 12 12 9 10 9 9 10 11 11 11 10 10 11 10 10 10 9 9 9 9 9 9 8 9 10 9 8 9 8 8 10 10 10 9 7 7 8 7 7 7 6 7 7 7 7 7 7 7 8 8 4 3 4 5 4 4 5 7 8 8 7 7 7 7 7 7 8 8 7
17 16 15 14 16 16 16 14 14 13 13 13 13 12 11 11 11 9 11 11 11 11 11 10 10 11 11 11 11 11 11 11 10 9 10 10 10 8 9 9 10 10 8 10 10 9 9 10 10 10 8 9 9 9 8 7 7 6 7 8 8 8 8 8 8 7 9 3 3 3 2 4 7 6 9 9 8 5 7 7 6 7 7 7 7
17 16 15 15 17 16 15 15 14 14 15 13 13 13 11 11 9 10 12 11 11 11 12 11 11 11 11 11 11 11 12 11 11 11 11 12 12 11 10 11 11 11 11 12 11 10 10 10 11 9 7 8 10 9 7 8 7 8 8 7 8 8 8 8 7 7 8 8 5 5 6 5 8 7 7 7 7 7 8 8 8 6 6 7 7
16 16 15 16 16 15 15 15 15 15 15 13 14 14 12 11 10 11 11 10 11 11 11 11 11 11 12 12 12 12 12 12 11 12 13 13 12 13 12 12 12 12 12 12 11 11 12 11 11 10 9 10 10 9 8 7 8 8 8 7 7 8 7 7 7 8 7 8 6 8 6 7 7 5 6 6 7 7 7 7 6 6 7 6 7
15 16 16 17 17 16 17 16 16 16 16 14 15 15 14 13 11 12 11 11 11 11 10 10 11 11 12 13 13 13 13 13 13 13 12 12 13 13 13 12 12 12 13 12 12 12 12 13 13 11 9 10 10 9 9 9 9 8 9 8 8 7 6 7 8 6 6 8 7 5 4 6 6 6 6 7 6 5 4 7 8 8 8 7 6
16 16 16 17 16 17 17 16 17 17 17 16 16 16 15 14 13 12 13 13 12 11 12 11 11 13 13 14 14 14 13 13 14 14 14 13 12 13 12 12 13 13 13 12 12 12 13 14 13 11 11 12 12 11 10 12 10 9 9 8 8 7 7 7 7 7 7 8 7 6 4 6 5 6 6 8 7 7 6 6 4 5 6 7 7
16 16 16 17 15 16 16 16 16 16 16 16 15 15 15 15 15 15 14 14 13 12 12 13 12 13 14 13 14 14 13 13 13 13 13 13 13 13 13 13 13 12 13 13 13 13 13 13 12 12 13 13 13 13 12 12 11 12 11 11 8 6 7 7 7 8 8 8 7 6 7 6 6 8 6 6 7 8 9 7 8 8 6 8 9
17 17 17 16 16 16 16 16 16 15 15 15 15 16 15 15 15 14 13 14 14 14 14 14 14 13 14 14 14 13 12 12 13 13 13 13 13 13 14 13 14 13 13 13 13 13 14 13 13 13 14 13 14 13 12 12 11 11 11 9 8 8 9 8 7 8 8 8 9 8 7 7 5 4 0 3 5 7 8 10 12 10 10 8 9
17 17 16 16 17 16 15 14 13 14 14 14 15 15 15 15 14 14 13 13 13 14 14 14 14 14 14 14 14 12 12 13 12 13 13 14 14 14 14 14 14 14 14 13 13 13 13 13 13 13 15 17 18 16 15 14 11 12 12 10 10 10 10 9 9 8 8 8 9 7 7 7 8 7 7 8 12 16 11 7 9 9 8 7 8
17 17 17 17 16 15 15 13 13 14 15 15 15 15 15 14 14 14 14 14 14 14 14 14 14 15 15 15 14 12 12 11 14 20 17 14 14 13 12 13 14 13 13 13 13 13 14 13 13 18 18 19 19 19 19 19 19 15 13 10 11 11 11 11 11 10 10 11 11 11 11 11 11 11 12 13 11 6 4 8 11 10 3 6 6
15 16 16 16 16 15 14 14 14 15 15 14 14 15 15 14 13 14 14 14 15 14 14 15 15 15 16 15 15 14 13 13 19 18 20 21 16 13 13 13 12 12 12 12 13 13 12 13 12 14 15 16 17 20 19 20 19 21 20 16 15 14 12 13 12 12 12 12 12 11 12 14 13 12 13 12 9 11 11 9 10 6 8 8 11
16 16 16 15 15 14 14 14 14 15 14 15 15 14 13 14 14 14 14 15 14 13 14 15 16 15 14 15 15 15 14 16 19 19 20 21 19 15 12 12 11 12 12 13 12 11 12 12 12 11 12 14 15 14 17 20 20 21 21 20 18 19 19 16 14 12 13 13 13 13 13 14 13 11 11 10 11 10 10 9 9 10 10 10 10
15 16 15 15 15 15 15 15 16 15 15 15 14 13 13 14 14 15 16 15 13 14 15 16 16 15 15 16 16 16 14 18 20 20 20 21 22 19 13 12 12 12 12 13 13 12 11 11 12 11 12 17 15 14 14 15 18 21 21 21 20 19 20 23 21 18 14 15 15 14 14 13 13 13 13 14 9 10 9 9 10 10 10 12 12
15 15 15 15 15 15 15 15 15 15 15 14 14 14 14 16 15 14 13 12 14 14 15 16 16 15 16 16 15 15 15 17 20 21 20 21 21 18 14 14 13 13 13 13 12 13 13 12 12 12 12 12 12 14 14 14 13 13 14 13 14 17 20 24 25 24 19 15 15 16 15 12 15 14 13 10 10 12 11 13 11 10 11 14 16
13 14 15 15 14 14 15 15 15 15 15 15 15 15 16 15 15 14 13 14 14 15 15 16 16 15 16 15 14 15 14 18 18 19 19 20 20 17 14 13 13 13 13 12 13 13 13 13 13 14 13 12 12 13 13 14 13 12 13 15 15 16 17 18 18 16 16 16 16 16 15 13 15 15 10 10 14 14 14 16 16 15 12 8 5
13 13 14 15 15 15 15 15 15 15 15 15 15 16 16 15 16 14 13 13 13 12 13 13 14 14 14 14 14 15 14 16 17 18 19 19 18 12 12 13 14 14 13 13 13 12 12 13 13 14 14 14 15 18 17 13 13 14 15 15 14 15 17 19 20 20 19 17 17 17 15 14 15 15 14 12 11 12 10 8 4 4 5 9 12
13 12 14 15 15 15 15 16 15 15 15 15 15 15 15 15 14 12 13 14 14 14 14 14 13 13 14 14 15 15 13 13 16 17 18 19 14 11 12 12 13 14 14 13 13 13 12 13 13 13 14 15 16 17 19 17 14 16 15 15 14 14 17 15 17 20 22 23 22 22 22 20 20 20 20 21 16 13 10 9 12 9 10 13 12
13 12 13 14 15 15 16 16 16 15 15 16 16 15 15 14 14 13 15 15 15 15 14 13 13 13 13 15 14 14 13 11 15 16 19 20 18 14 12 12 14 14 13 13 12 12 14 19 17 15 15 15 16 18 19 16 15 17 15 14 14 17 18 11 7 11 19 22 22 24 24 23 23 23 21 21 21 16 13 16 14 11 14 13 14
11 12 12 12 14 15 16 16 16 16 16 16 15 15 15 15 14 13 14 13 14 13 12 13 13 12 14 14 16 16 13 11 16 17 20 20 18 12 12 12 13 13 12 13 12 12 13 14 19 18 17 17 18 18 19 17 16 16 15 13 16 20 17 3 10 13 12 12 15 18 20 23 21 19 18 21 22 21 18 18 13 13 15 14 13
8 10 12 12 12 13 14 16 16 16 16 15 14 14 13 12 13 13 13 12 12 12 12 12 14 13 12 12 12 13 12 10 11 18 19 21 23 15 11 12 14 14 13 13 12 12 12 12 14 18 21 21 21 20 19 21 17 16 13 14 16 21 7 8 15 15 17 17 17 17 19 19 17 18 17 14 15 17 19 17 16 15 15 15 14
7 8 7 9 11 13 12 14 16 15 15 15 15 14 12 12 12 12 13 11 11 11 12 12 12 12 11 11 11 10 10 9 10 18 19 21 23 20 12 13 13 12 12 13 12 12 11 11 11 14 18 20 22 22 21 20 19 16 15 14 17 4 11 7 15 18 15 14 15 15 13 13 14 14 15 15 14 14 16 17 17 17 16 16 14
4 6 9 10 10 11 12 12 13 13 13 13 12 12 11 12 12 12 11 11 13 13 12 11 11 10 9 9 8 8 9 14 8 15 19 21 21 24 14 13 13 12 13 12 11 10 10 10 11 14 19 20 21 21 21 19 20 14 17 18 6 14 12 15 12 11 11 9 10 11 13 12 12 13 13 14 14 14 15 16 18 19 18 15 14
3 6 7 9 10 10 10 12 11 9 10 12 13 13 11 11 11 11 11 11 11 12 11 10 10 9 8 7 5 6 6 9 14 12 17 21 22 21 22 16 16 14 12 13 11 11 11 11 12 17 18 20 20 20 20 22 18 15 20 20 15 15 19 13 11 11 11 11 11 13 14 13 12 13 12 11 12 13 15 17 19 18 15 13 14
3 4 6 6 8 9 10 10 10 9 11 11 11 11 11 10 10 10 11 10 10 10 9 8 8 8 8 7 5 5 5 6 11 16 15 20 20 21 22 23 18 13 13 12 11 11 11 10 7 10 11 13 15 16 17 17 14 17 17 12 8 14 15 12 11 8 9 14 16 15 15 14 12 11 12 11 11 14 16 17 17 16 15 15 17
4 3 5 6 6 5 6 8 9 9 9 10 10 10 9 9 9 8 8 8 8 9 8 7 8 8 7 7 6 6 6 6 7 12 16 17 20 20 21 20 19 13 9 10 7 4 4 7 11 10 10 8 8 9 10 13 16 15 13 8 14 11 13 11 12 8 13 17 16 16 16 15 15 11 3 3 12 14 14 13 12 11 13 15 14
6 3 4 5 6 6 7 6 7 8 9 9 10 9 11 10 10 8 8 8 8 8 7 7 7 7 7 6 6 6 6 6 2 3 2 6 7 10 12 11 12 12 10 11 13 14 15 15 15 14 10 6 5 5 6 8 9 12 12 10 9 10 11 11 11 11 14 16 17 17 17 15 11 4 9 12 13 14 14 15 13 13 14 14 13
5 3 4 4 5 7 8 7 7 6 6 6 6 7 7 8 8 8 8 8 8 7 7 7 7 7 7 6 6 6 6 3 3 3 3 3 2 4 6 8 8 6 7 8 9 10 13 12 9 11 11 14 14 13 13 12 10 9 7 7 9 10 11 11 12 14 16 15 16 16 15 15 8 8 10 14 15 15 15 16 14 13 13 14 16
5 4 2 4 6 7 8 10 10 7 7 6 5 5 6 8 8 8 9 9 8 7 7 7 8 8 7 7 6 6 3 4 4 4 2 3 3 3 3 3 4 5 6 6 6 6 5 5 7 5 6 7 8 7 7 7 8 9 8 6 7 9 12 16 15 13 13 13 15 14 14 13 12 11 11 13 16 17 15 14 15 15 14 14 14
4 4 1 3 5 5 7 8 8 8 8 11 9 8 5 4 1 3 6 4 3 8 9 8 8 8 7 7 7 4 3 5 5 2 3 3 3 4 4 3 2 2 2 4 1 1 2 3 4 5 4 5 6 7 7 7 8 7 7 6 5 6 7 7 10 12 13 13 14 14 15 14 14 11 11 13 14 15 14 16 17 18 15 14 18
4 4 4 1 3 6 6 6 7 8 10 9 10 10 15 14 11 6 4 8 8 7 3 4 3 6 7 4 2 5 7 5 7 7 4 6 8 8 7 7 4 3 2 3 2 1 2 2 4 5 6 6 6 7 8 8 9 10 9 8 8 8 7 7 9 10 10 12 12 13 14 13 14 12 11 13 14 14 14 15 15 14 15 17 18
4 4 4 4 2 4 5 6 6 8 9 9 9 10 8 12 16 15 11 11 14 16 16 14 12 8 9 7 7 14 14 12 10 6 7 6 7 8 8 7 5 4 3 5 4 3 3 3 3 4 4 4 5 6 6 7 7 8 9 9 9 10 10 9 9 8 9 10 11 12 13 13 14 13 12 12 14 15 16 18 18 17 17 16 15
5 4 4 4 4 3 5 6 7 8 8 8 9 10 10 11 10 14 14 15 16 16 16 16 15 15 13 12 10 5 7 8 8 8 8 8 9 9 8 8 6 6 3 5 6 4 2 1 1 3 3 4 5 5 6 7 7 8 9 10 10 9 9 10 9 10 11 11 11 10 11 12 13 14 14 14 14 12 10 9 10 11 14 16 19
5 4 4 4 5 4 4 6 7 9 9 9 8 8 10 11 11 9 10 13 16 16 16 15 14 13 12 11 10 10 10 8 8 7 7 7 9 10 11 9 8 6 6 6 5 3 1 0 1 2 3 5 5 5 6 6 7 8 8 9 10 10 10 11 11 11 10 11 11 12 12 12 11 11 13 14 14 15 15 15 15 15 15 15 14
5 5 4 4 6 5 5 6 7 7 7 8 8 8 8 9 10 10 10 8 10 12 13 14 13 14 13 12 12 11 9 8 6 6 6 5 6 5 5 4 1 2 4 4 4 4 1 1 2 3 4 4 5 5 6 6 7 8 8 9 9 10 11 11 11 11 10 10 10 11 11 11 11 11 10 9 10 12 13 13 11 12 13 14 14
6 9 13 8 6 6 5 5 6 7 8 8 8 9 9 8 8 7 8 9 9 8 6 6 9 9 8 6 6 8 7 7 5 5 5 5 5 5 5 3 3 2 4 3 3 2 2 2 3 3 3 5 5 6 6 7 8 8 9 9 10 10 10 10 11 11 11 11 11 11 11 12 12 12 12 12 11 11 12 13 14 15 17 16 16
6 5 6 8 8 7 7 7 6 7 7 8 9 9 8 8 9 9 8 8 9 8 7 6 5 5 11 9 6 5 6 5 5 5 5 5 5 7 3 3 5 6 5 4 3 2 2 5 5 6 6 5 6 6 6 7 7 8 8 9 10 10 10 11 10 10 10 10 11 11 11 11 11 12 13 13 14 13 10 10 9 8 8 7 5
5 6 6 6 6 6 7 8 8 7 8 8 8 9 9 8 8 8 8 7 8 7 7 5 6 7 7 5 8 7 6 7 6 6 5 7 10 6 3 5 5 3 3 3 3 5 6 5 5 5 5 6 6 6 6 7 7 7 8 9 9 10 10 10 11 11 11 10 10 11 11 11 11 10 11 11 10 11 9 6 4 6 9 14 15
8 7 6 7 7 8 8 8 8 10 9 8 7 8 8 8 8 8 8 8 7 8 8 7 6 6 6 3 4 3 5 5 5 3 2 1 1 3 3 3 3 5 4 4 3 3 3 4 4 4 5 5 5 6 6 7 6 6 7 8 8 8 12 11 11 10 10 9 10 10 10 10 9 9 10 11 5 2 5 5 7 9 10 10 10
9 13 16 15 11 8 8 8 9 9 9 9 8 8 8 8 8 8 8 8 8 7 7 7 7 6 5 3 5 4 4 3 2 1 1 1 1 3 3 3 4 4 3 2 2 3 4 4 4 4 4 4 5 6 6 7 6 6 6 7 8 7 8 8 8 8 8 8 8 8 7 7 5 2 3 5 7 6 7 8 9 12 13 14 13
8 8 11 14 10 10 9 9 9 9 9 9 9 8 8 8 7 7 7 8 8 7 8 8 8 7 6 5 5 5 6 5 3 3 2 3 3 2 2 3 3 3 4 5 4 3 3 4 4 4 5 5 5 6 6 6 5 5 5 5 6 7 7 7 7 8 8 9 9 9 9 9 9 6 6 6 7 8 10 11 10 11 13 14 14
8 9 10 10 11 10 10 10 10 9 9 9 9 9 9 8 7 7 7 7 7 8 8 7 7 6 7 7 5 6 7 7 6 6 6 7 7 7 6 4 4 5 4 3 3 4 4 3 4 4 4 5 5 5 6 5 5 4 4 4 4 5 6 6 6 7 7 8 8 8 8 8 7 7 9 9 9 9 9 10 12 12 13 14 14
9 9 9 8 10 10 10 9 9 10 9 9 9 9 8 8 8 8 8 8 7 7 7 7 7 6 11 18 15 14 10 8 8 8 8 7 7 7 7 8 7 5 5 4 4 5 4 4 4 5 5 5 5 5 5 4 4 3 3 3 4 4 5 5 5 4 5 6 7 7 6 7 7 9 9 7 7 6 8 9 10 11 11 11 11
10 9 9 9 9 9 9 8 8 9 9 9 9 9 9 9 8 8 8 7 7 6 7 7 7 7 9 13 13 13 9 8 8 8 8 8 8 8 8 7 6 5 5 5 5 5 6 6 6 5 5 5 5 5 4 4 4 3 3 3 3 4 4 4 5 5 4 5 5 6 6 6 7 8 8 7 7 7 7 8 8 9 10 10 9
9 9 9 9 9 8 8 8 8 8 8 10 10 9 8 8 8 8 8 8 8 8 8 7 6 7 7 8 10 10 9 8 8 8 8 8 8 8 8 8 7 8 9 10 10 10 9 9 8 7 6 6 6 5 4 3 2 2 3 3 3 3 4 4 4 4 5 5 4 4 4 5 6 6 6 5 5 5 4 6 7 7 8 8 9
9 9 9 9 8 8 8 7 8 8 9 8 8 8 8 8 8 8 8 8 8 8 8 7 7 7 8 9 9 9 8 8 8 9 9 8 7 7 7 7 9 8 9 9 10 10 9 9 9 9 9 8 8 7 6 6 3 3 2 2 3 3 3 4 3 4 4 4 2 3 4 5 6 5 4 3 3 4 5 5 6 6 7 7 8
9 9 9 9 9 8 8 8 8 8 8 8 8 8 9 9 8 8 8 8 8 7 7 7 7 8 8 8 8 8 8 8 8 8 7 7 7 7 7 7 7 9 9 9 9 10 10 9 9 9 9 8 9 9 8 8 7 5 5 4 3 3 2 3 3 4 4 4 2 3 4 4 4 4 4 4 5 6 5 5 4 4 3 4 5
10 9 9 9 9 8 8 8 8 8 8 9 9 9 9 8 8 8 9 10 9 8 8 8 9 8 8 8 8 8 8 8 8 7 8 8 8 8 7 8 8 9 9 9 9 9 10 10 9 9 9 9 8 9 10 9 9 8 7 6 6 7 5 4 4 3 3 3 1 2 2 2 3 3 3 3 3 3 4 4 2 2 2 3 4
8 9 9 9 9 9 8 8 10 11 10 10 10 10 9 9 8 9 8 8 9 9 8 8 8 7 7 6 6 7 7 7 7 7 7 7 8 8 8 9 9 8 8 9 9 9 9 9 9 8 9 9 9 8 9 10 9 9 9 9 8 9 11 8 3 4 3 3 4 1 2 1 0 0 1 1 1 1 1 1 1 1 1 2 2
8 8 9 9 9 9 9 9 9 9 9 9 9 10 9 9 9 8 8 9 9 8 8 8 7 7 7 6 6 7 7 7 7 7 8 7 8 8 8 8 9 9 9 9 9 9 9 8 9 8 8 8 8 8 7 9 10 8 9 9 13 20 20 13 2 4 3 3 3 4 2 1 2 3 2 1 2 2 2 2 2 3 3 3 4
9 9 9 10 10 9 9 9 8 9 9 9 9 9 9 9 9 8 8 8 8 8 8 8 8 7 7 7 8 8 8 8 8 8 7 7 8 8 8 8 8 9 8 8 8 8 8 8 9 10 9 9 8 9 9 8 9 10 9 10 16 18 19 19 8 4 4 1 2 3 5 5 3 4 4 4 3 4 4 4 4 4 4 5 5
9 10 10 10 10 9 9 9 9 9 9 9 9 9 9 9 8 8 8 9 9 8 8 8 8 8 8 8 8 8 8 8 8 7 8 7 7 8 7 8 8 8 8 8 7 8 8 9 9 9 8 9 9 9 9 9 8 11 13 16 16 17 17 15 10 10 9 4 3 4 5 6 6 6 6 6 4 5 5 5 5 5 6 6 6
Wind_Direction
191 194 190 194 192 193 195 195 200 202 205 205 207 208 205 204 204 206 196 197 189 188 192 196 195 198 197 201 203 203 205 206 205 204 205 210 210 207 201 199 207 213 206 209 210 206 209 213 219 221 212 215 221 218 214 211 200 208 209 201 202 192 177 185 206 239 283 234 222 230 220 175 207 207 202 204 205 212 210 210 209 208 210 215 219
193 193 192 193 194 193 194 196 200 200 203 205 209 210 207 204 204 199 200 204 195 197 197 194 196 196 199 202 206 207 206 207 206 203 208 211 213 209 207 201 208 213 206 212 210 211 210 215 220 220 211 217 222 222 215 209 202 206 215 205 204 199 196 179 209 202 233 264 255 266 263 192 209 201 199 199 213 201 208 215 216 210 208 208 215
192 191 193 194 196 195 194 196 197 199 202 204 210 211 211 209 199 198 203 202 201 202 202 201 198 196 201 204 206 209 209 208 207 206 209 210 212 213 211 208 209 210 210 214 212 210 213 217 222 217 211 218 224 225 217 214 206 205 212 209 208 203 196 198 176 209 218 235 208 215 213 205 206 208 212 212 206 195 204 215 215 214 213 203 209
191 191 194 198 196 194 194 196 196 199 202 204 209 210 210 211 204 205 206 202 202 206 203 203 202 201 205 206 208 211 211 210 209 209 210 210 213 214 213 213 214 215 214 215 214 211 215 219 224 215 209 216 223 225 223 217 212 211 211 211 213 211 200 201 204 195 205 221 234 209 210 197 228 230 209 206 205 207 210 216 217 218 213 207 207
190 193 194 197 197 196 196 195 196 198 201 203 208 208 210 209 207 210 207 207 206 204 206 202 203 204 208 210 210 212 212 209 210 212 212 212 213 214 215 215 216 217 218 217 215 213 216 218 221 214 208 215 224 223 221 219 218 215 215 212 211 212 205 203 213 205 195 214 234 229 212 217 219 214 198 197 222 228 226 219 211 216 219 217 211
191 192 195 198 200 199 198 196 197 198 200 203 206 207 208 208 207 210 208 210 209 206 205 204 204 207 211 212 212 213 212 210 211 213 212 212 213 216 217 217 218 218 220 220 218 216 218 220 221 214 211 213 219 219 219 220 218 218 220 218 213 206 209 212 209 211 212 222 216 237 229 216 227 228 209 203 200 216 231 237 245 236 223 231 229
190 192 195 198 200 202 200 199 199 199 200 203 204 207 208 208 208 210 208 210 208 208 207 207 210 210 213 213 215 214 212 212 213 213 214 212 213 214 217 219 220 220 222 221 221 219 220 222 221 217 216 217 219 218 216 218 217 220 217 219 210 204 216 218 212 212 215 224 232 224 225 233 214 226 231 209 214 206 210 221 240 232 222 219 231
190 191 193 197 200 202 202 200 199 200 200 202 206 208 208 208 209 210 207 209 210 210 209 209 211 212 215 215 217 214 212 214 214 214 213 214 213 216 216 218 220 223 224 223 222 221 221 222 222 220 220 219 218 221 215 218 218 224 221 213 205 202 215 219 218 219 221 226 225 227 227 225 242 263 296 166 222 252 227 209 220 223 225 221 224
191 192 193 196 200 202 201 201 200 200 200 202 206 208 209 210 209 209 208 209 210 211 211 211 212 215 218 217 218 215 213 215 214 212 212 215 215 217 216 217 219 222 225 226 224 224 224 224 225 224 222 223 220 219 217 214 211 220 222 209 207 206 215 217 217 213 224 225 234 230 226 226 225 208 213 205 207 216 214 204 230 228 221 222 235
190 192 195 197 199 198 198 198 199 199 200 203 205 207 209 210 210 211 211 210 210 210 211 212 213 215 217 218 218 217 218 217 216 212 210 212 215 219 219 220 220 222 224 226 229 227 227 226 228 226 225 225 225 223 223 220 218 218 219 204 206 206 211 216 215 215 218 221 224 221 223 227 221 213 216 219 220 224 188 198 223 227 190 237 257
190 194 197 199 198 196 195 199 198 201 203 204 205 206 208 208 210 213 214 212 211 210 211 212 214 215 216 216 216 218 219 220 214 210 212 213 213 217 220 222 222 224 225 225 228 228 231 230 233 230 228 230 229 226 224 224 222 224 225 214 205 203 208 214 219 215 217 223 223 219 223 228 226 219 221 222 214 211 215 206 219 202 202 209 233
191 194 198 198 196 194 196 197 200 203 201 204 204 205 206 207 211 213 214 214 212 210 212 214 216 216 217 218 219 219 221 219 214 210 210 212 213 217 220 222 222 223 225 225 227 228 230 230 230 231 228 226 226 228 228 228 226 225 226 224 216 212 210 207 212 216 217 224 225 223 220 225 227 220 224 217 221 216 219 214 213 210 212 217 225
191 196 197 196 196 195 196 197 200 201 202 202 203 202 204 208 211 212 215 215 212 212 214 215 217 217 217 218 220 220 223 218 213 211 210 210 212 215 224 222 222 224 223 226 228 227 228 230 232 229 233 227 224 226 227 229 229 230 229 229 226 219 220 223 219 216 212 221 226 228 219 222 226 228 217 217 210 215 212 220 222 218 218 221 229
191 194 196 196 195 195 196 197 200 201 200 200 198 200 202 208 210 212 215 214 216 217 216 218 218 218 219 220 222 223 223 219 211 210 210 210 210 208 224 225 226 228 225 225 227 229 229 229 231 234 232 228 225 224 227 229 227 227 232 232 232 231 230 229 227 225 222 222 224 231 227 211 226 227 220 207 200 213 209 220 219 221 219 223 224
192 192 194 196 195 195 195 197 199 200 200 198 198 200 203 206 207 209 210 212 214 217 217 218 220 219 220 222 224 226 227 220 210 209 210 209 210 205 222 227 233 233 231 228 227 229 229 230 232 236 234 231 227 220 222 226 226 228 228 228 228 231 229 231 230 228 228 231 230 233 233 221 229 231 221 207 211 214 210 215 212 215 223 244 288
197 192 194 195 195 194 193 195 198 199 199 198 199 202 203 203 206 206 209 213 216 219 223 223 224 224 224 224 227 232 231 216 208 205 207 209 206 207 219 227 232 235 235 232 231 231 231 230 233 236 237 236 230 218 217 218 224 228 230 231 230 232 235 232 227 225 227 229 232 235 235 229 227 228 221 212 214 217 224 231 228 216 215 230 233
201 194 194 194 194 193 194 195 196 197 197 198 200 202 203 205 208 203 209 212 212 215 219 219 222 223 222 223 226 232 234 215 203 202 202 203 197 212 218 227 233 236 237 234 234 233 232 230 231 237 237 239 231 219 217 209 225 228 230 232 233 235 241 236 228 229 232 235 238 241 242 238 231 228 221 212 208 205 209 217 223 195 210 227 232
203 196 196 194 192 192 193 194 196 196 197 199 199 202 203 204 205 200 206 209 214 216 215 220 221 222 221 223 223 229 231 213 196 197 196 195 194 206 215 222 232 235 238 236 235 235 234 231 231 235 239 241 232 220 217 204 223 229 229 232 236 241 245 234 232 232 229 233 238 242 244 242 239 233 224 213 208 198 200 217 214 197 219 220 229
205 203 198 193 193 192 192 194 196 196 197 198 199 200 201 201 203 201 207 210 214 214 215 218 221 221 221 223 220 221 227 214 193 191 192 194 196 209 211 220 230 233 235 239 235 238 238 234 232 233 239 242 235 226 217 205 222 228 227 227 237 242 246 200 230 237 230 220 230 234 239 239 237 236 232 219 210 204 210 219 211 206 219 220 223
219 213 199 193 193 192 192 193 195 196 197 197 199 200 200 201 201 202 206 209 212 214 215 218 221 222 221 222 223 221 222 220 192 190 190 195 195 201 211 216 226 229 231 237 239 237 237 239 236 231 235 242 243 235 225 209 219 228 224 225 236 245 239 219 232 230 234 225 228 228 232 234 234 235 237 228 219 216 217 219 217 213 217 220 213
217 210 207 199 192 192 193 194 195 197 195 195 197 198 196 198 199 200 204 206 210 213 216 219 222 226 222 222 225 221 216 216 196 187 194 195 199 200 213 216 221 225 229 234 236 240 239 237 242 232 227 235 239 239 236 223 219 228 226 226 229 302 46 270 253 240 244 242 239 240 239 238 235 235 233 229 222 218 222 223 222 218 217 218 214
234 209 192 195 197 194 193 195 196 195 194 192 195 199 196 196 197 199 201 203 206 211 213 218 222 225 225 222 221 218 205 200 197 192 193 198 199 202 210 218 213 219 228 235 236 240 242 240 242 233 228 232 235 238 239 236 227 228 236 230 210 80 220 238 246 254 256 257 255 252 248 242 237 233 232 230 228 223 221 224 225 225 220 216 212
252 209 203 192 191 192 193 189 189 190 191 190 191 195 192 193 195 194 198 202 206 210 213 215 220 226 226 221 214 206 201 200 195 190 199 199 202 203 210 216 213 216 226 234 230 236 236 240 243 239 233 234 236 236 238 238 235 232 237 235 159 169 230 238 245 251 259 262 257 254 249 245 241 236 231 231 230 227 227 226 226 225 222 210 208
287 204 204 205 192 187 186 187 185 185 185 184 189 190 190 192 190 192 194 198 201 209 210 210 217 223 226 223 213 203 199 195 203 196 197 204 203 203 210 219 217 215 221 233 230 231 239 242 275 308 292 273 263 257 253 251 249 246 243 262 111 176 236 245 244 249 271 260 255 255 255 250 245 243 233 225 228 229 230 229 227 220 213 215 214
310 212 201 193 188 184 174 175 179 177 178 177 181 185 187 183 188 191 191 197 200 204 205 200 211 218 220 222 214 210 201 201 209 211 208 204 206 209 214 218 228 236 249 251 259 282 354 333 325 322 316 305 279 271 271 264 257 263 268 128 160 200 227 232 238 211 234 251 256 257 257 254 244 251 300 244 234 235 234 233 221 206 212 219 215
330 264 204 181 173 162 162 167 170 170 168 177 180 180 177 179 185 182 186 194 195 197 199 197 207 211 216 218 213 210 208 203 178 45 64 169 199 216 221 229 235 237 244 274 280 288 290 292 295 296 296 296 303 293 286 271 265 252 246 180 182 202 221 229 232 222 231 241 246 249 252 255 246 178 196 222 232 230 226 228 218 212 204 207 210
336 311 216 180 162 159 157 157 154 155 162 163 170 171 172 176 179 177 184 190 192 198 196 194 203 205 216 217 212 211 207 134 86 82 60 122 131 175 196 217 219 215 228 248 263 268 271 272 276 279 280 279 273 263 261 272 276 265 243 190 194 204 215 224 226 228 230 236 244 248 251 253 229 175 196 218 227 228 220 224 219 218 206 208 208
332 314 233 173 164 161 159 156 148 151 152 146 151 163 174 176 174 179 186 190 190 202 196 199 202 203 213 211 208 209 153 113 138 141 121 103 113 115 154 167 171 186 209 226 234 259 273 298 299 306 307 305 295 297 285 278 269 274 265 237 215 214 222 226 233 240 243 241 246 250 256 256 247 220 215 219 226 230 221 220 219 217 208 204 210
343 347 336 157 159 157 154 150 149 141 102 74 56 38 7 353 348 90 28 358 246 199 196 195 202 203 196 195 191 150 128 169 191 135 98 60 99 144 158 154 149 161 67 16 305 313 352 321 317 317 318 308 309 304 310 305 298 290 288 280 252 233 225 219 230 236 242 247 250 252 254 255 257 243 228 229 231 233 223 221 221 221 215 205 212
14 355 352 26 121 142 142 143 142 129 119 114 98 73 54 55 36 47 24 2 23 17 95 183 164 135 106 49 348 193 187 163 120 109 96 79 73 77 85 79 67 76 37 59 94 51 27 355 332 332 326 333 319 316 314 316 314 310 306 304 298 287 270 253 243 246 245 246 250 252 254 254 257 250 237 231 233 232 228 221 226 219 214 211 216
43 15 15 17 31 114 130 137 140 126 122 116 111 108 92 51 44 42 49 59 63 60 62 65 78 100 123 106 48 59 89 107 114 114 105 97 94 99 106 122 126 139 162 112 63 63 44 29 344 331 322 321 314 308 309 311 312 309 308 309 305 301 303 297 294 284 268 260 255 253 253 252 252 249 243 239 235 229 224 220 221 216 217 214 218
51 32 29 25 42 75 115 128 120 112 111 118 121 121 110 99 57 34 37 52 61 67 70 71 70 71 83 108 117 59 56 89 116 118 112 101 98 105 111 113 117 97 70 79 80 61 73 95 314 300 304 309 298 300 298 298 296 296 297 297 291 286 283 282 284 286 285 282 278 271 263 257 253 249 245 245 244 246 240 235 230 229 224 217 216
34 44 50 53 51 50 70 95 114 118 124 122 123 123 121 116 109 92 42 49 61 65 64 66 69 76 79 74 86 119 137 143 132 117 100 93 84 81 75 60 58 32 53 66 110 127 179 178 265 294 294 284 284 285 284 284 290 292 291 288 290 290 283 280 278 276 274 270 272 273 273 273 271 266 257 247 240 239 234 230 226 226 227 226 224
23 36 35 51 62 57 57 94 108 114 122 126 127 120 113 114 120 119 112 99 66 53 50 56 66 72 66 81 99 104 114 128 126 115 113 101 105 106 95 82 73 78 119 117 97 65 52 322 271 259 258 263 270 284 294 298 297 293 291 286 284 286 286 285 282 278 274 270 268 270 269 268 266 267 269 267 258 252 246 241 231 226 227 225 221
22 42 50 49 54 56 55 64 94 110 116 117 116 114 114 116 113 102 103 103 100 96 89 48 32 54 93 88 101 119 130 126 134 143 135 146 144 145 121 90 76 47 43 74 81 49 6 329 311 306 313 320 316 312 307 305 304 301 300 299 296 293 291 289 282 279 275 273 270 267 265 265 265 262 262 262 261 254 247 241 236 231 231 227 220
32 37 40 47 51 56 55 52 60 81 97 108 113 113 115 113 106 106 101 98 104 106 92 71 87 89 86 73 93 125 132 142 156 167 169 156 157 147 113 103 63 46 42 29 41 18 18 356 351 337 329 319 315 309 304 303 301 302 303 307 308 305 302 298 293 288 283 280 278 278 275 270 264 261 260 255 252 253 252 246 236 226 219 218 198
34 30 34 35 45 59 63 62 56 62 83 91 101 111 108 101 99 98 95 98 97 92 94 102 89 70 60 75 102 105 132 159 166 174 182 186 190 196 92 91 87 74 53 21 15 16 14 351 332 314 314 308 307 300 298 299 304 311 312 310 308 306 305 306 306 303 298 294 289 285 281 278 274 268 265 264 254 251 260 274 270 244 233 213 195
54 49 44 44 50 52 61 59 56 57 63 73 88 98 101 99 100 101 102 99 98 97 93 83 78 80 79 29 24 98 128 144 155 142 201 151 122 81 81 84 83 71 37 17 8 9 347 329 318 308 301 298 296 303 303 309 316 319 318 314 315 315 316 313 313 316 313 305 300 297 294 291 290 285 277 272 286 60 90 103 100 85 67 61 70
67 59 60 58 55 57 61 65 59 64 65 68 72 84 91 98 100 99 97 98 92 87 84 77 65 52 33 4 20 351 84 41 35 50 38 46 91 88 77 63 58 32 32 21 1 4 340 322 303 294 295 305 312 311 312 314 319 323 323 323 327 329 333 337 334 336 334 330 324 324 323 317 312 322 42 65 85 86 86 92 99 100 97 93 89
72 68 60 63 61 54 57 61 63 62 63 70 69 73 80 84 89 93 96 92 87 82 76 67 57 41 12 17 14 16 53 23 10 355 350 15 9 7 56 45 23 22 8 358 357 327 305 286 288 308 324 329 327 319 314 312 314 316 324 337 337 339 336 342 348 348 349 347 349 348 352 349 343 2 41 65 80 92 96 99 100 102 106 108 106
79 75 72 64 68 67 60 59 59 60 63 65 66 68 69 68 68 70 71 74 76 74 71 68 64 46 36 41 41 48 61 41 26 33 25 30 27 21 1 355 10 357 349 338 304 291 279 293 310 329 336 335 321 316 313 315 315 324 339 346 348 343 340 347 355 357 354 2 6 1 360 1 6 27 51 51 56 69 81 87 90 92 94 97 104
81 76 73 69 66 69 69 64 62 64 65 65 63 63 64 64 64 62 64 63 62 61 62 58 48 40 27 29 36 43 50 37 39 45 40 34 31 25 23 21 8 357 350 348 331 325 316 329 332 344 343 331 326 315 315 315 322 331 343 357 357 347 350 347 348 1 14 17 16 11 0 9 24 40 40 34 39 46 70 76 85 88 89 93 96
87 82 79 74 70 69 72 72 71 71 68 68 66 66 65 65 62 61 62 62 60 56 55 50 38 32 33 23 33 43 47 36 35 32 28 24 22 21 17 10 9 11 15 9 5 2 360 356 349 343 330 321 316 314 313 318 320 333 345 2 4 352 350 345 345 351 355 31 34 21 20 25 39 48 53 48 43 46 54 70 81 92 99 104 104
85 84 81 77 76 74 70 73 73 72 72 76 76 71 67 64 60 57 59 57 52 48 48 41 38 36 35 22 29 42 40 35 31 27 21 18 18 14 8 355 11 21 18 17 11 10 9 7 359 350 344 337 334 323 313 309 322 357 348 358 23 356 348 342 345 346 344 342 19 29 29 35 42 58 70 57 57 72 73 80 86 98 106 114 114
83 82 81 79 75 74 72 69 73 74 76 73 70 68 64 62 59 57 54 55 54 52 45 41 36 38 36 35 35 38 33 32 30 26 22 15 11 6 359 9 21 24 21 20 16 13 14 9 1 352 346 347 344 342 337 328 340 6 6 35 29 358 333 328 319 320 329 321 334 24 30 32 24 20 36 75 101 113 120 123 121 115 110 114 117
83 83 81 81 79 76 76 73 72 72 71 70 71 68 65 61 62 61 60 59 58 55 51 46 48 49 46 44 43 43 36 35 34 31 25 17 11 4 10 24 26 27 26 22 16 15 13 11 2 354 345 342 345 342 349 347 343 354 354 6 357 330 293 302 321 345 334 320 336 22 21 25 22 8 21 8 6 12 24 23 27 31 70 101 109
84 83 83 82 83 84 81 80 77 76 74 73 70 70 66 64 63 63 62 62 62 58 53 47 46 45 46 46 46 44 39 38 36 34 31 24 17 14 17 23 26 24 25 23 18 15 13 10 5 354 352 350 347 350 353 351 346 343 350 355 358 344 337 334 322 318 310 305 293 85 50 39 34 40 32 29 32 42 58 64 73 95 90 103 115
84 87 88 86 84 80 75 72 75 75 73 71 70 70 69 68 63 60 57 54 56 56 58 55 53 49 47 44 41 42 41 41 37 36 27 25 21 19 23 31 30 28 26 24 19 11 8 6 1 354 357 357 359 355 359 351 354 349 348 345 348 343 323 310 317 324 316 306 298 256 160 155 235 320 96 103 92 72 84 44 56 115 150 162 153
81 81 81 80 81 79 79 79 79 79 79 78 75 73 70 69 65 63 64 62 62 61 59 55 53 51 51 49 49 47 45 41 38 34 33 27 25 22 21 28 33 28 28 25 18 10 2 360 3 360 355 352 353 349 347 353 356 353 350 347 338 334 326 311 297 288 305 300 282 283 276 243 217 246 250 215 208 203 182 197 185 182 181 169 162
82 81 82 83 82 80 79 79 79 81 80 79 78 78 76 74 71 69 67 66 65 61 59 59 55 51 49 47 46 45 43 40 37 34 32 29 27 22 20 21 27 29 29 27 21 13 360 1 4 1 358 359 352 354 354 350 354 351 354 339 338 338 339 322 305 338 312 251 226 236 246 236 234 230 239 236 224 205 200 197 192 182 170 169 173
83 84 85 85 86 86 85 85 83 83 83 85 86 86 84 82 81 77 74 73 71 68 65 60 57 53 49 46 45 44 45 43 39 36 32 30 26 22 17 20 23 26 24 22 16 16 12 12 12 7 1 2 358 0 358 355 352 348 342 343 352 350 343 338 325 325 316 265 221 232 242 239 222 224 223 220 208 203 196 185 178 172 172 168 167